Location: Unspecified
(33.9239°N, 118.0544°W)
Time: 05:33:44
(UTC-07:00)

Cosmos 2058 - Visible Passes

Search period start: 26 May 2016 00:00
Search period end: 05 June 2016 00:00
Orbit: 564 x 587 km, 82.5° (Epoch: 25 May)

Date Brightness Start Highest point End Pass type
(mag) Time Alt. Az. Time Alt. Az. Time Alt. Az.
26 May 5.2 01:55:58 23° NNE 01:55:58 23° NNE 01:57:44 10° NNE visible
27 May 5.1 01:59:41 25° NNE 01:59:41 25° NNE 02:01:30 10° NNE visible
28 May 5.0 02:03:23 25° N 02:03:23 25° N 02:05:11 10° N visible
29 May 5.0 02:07:04 24° N 02:07:04 24° N 02:08:48 10° N visible
30 May 5.1 02:10:45 21° NNW 02:10:45 21° NNW 02:12:20 10° N visible
31 May 5.3 02:14:24 18° NNW 02:14:24 18° NNW 02:15:46 10° NNW visible
01 Jun 5.8 00:41:49 12° NE 00:41:49 12° NE 00:42:12 10° NE visible
01 Jun 5.4 02:18:03 15° NW 02:18:03 15° NW 02:19:04 10° NNW visible
02 Jun 5.7 00:45:27 14° NE 00:45:27 14° NE 00:46:15 10° NNE visible
02 Jun 5.6 02:21:41 12° NW 02:21:41 12° NW 02:22:11 10° NW visible
03 Jun 5.5 00:49:04 17° NNE 00:49:04 17° NNE 00:50:08 10° NNE visible
04 Jun 5.4 00:52:41 19° NNE 00:52:41 19° NNE 00:53:56 10° NNE visible
